星链-37593(STARLINK-37593)

导读

STARLINK-37593(NORAD编号69355)是美国太空探索技术公司(SpaceX)星链星座的低轨通信卫星,承担全球高速互联网接入任务,重点覆盖地面网络难以触达的偏远区域,同时可支撑应急、航空等场景的通信需求。该卫星运行于调整后的约480公里低轨道,轨道倾角53度左右,在轨状态稳定,是星链9000余颗现役卫星的组成部分。作为低轨通信星座节点,其在提升全球数字覆盖能力的同时,也遵循星链2026年的轨道调整策略,以降低失控后长期滞留轨道的空间安全风险。

基本信息
目录编号:
69355
目录名称:
STARLINK-37593
国际标识:
2026-123C
轨道中心:
EARTH
卫星名称:
星链-37593
卫星全名:
星链-37593(STARLINK-37593)
卫星状态:
在轨 (已飞行7 天)
发射日期:
2026-06-04 UTC
国别 :
美国 (US)
星等 :
--
轨道信息
数据来源 国际轨道数据
星历时间: 2026-06-11T14:00:02+0800
12小时前
查看轨道信息
半长轴: 6683.235km
偏心率: 0.0000903
轨道倾角: 53.158°
近地点辐角 75.028°
升交点赤经 271.624°
平近点角 11.236°
近地点: 304.494km
远地点: 305.702km
周期: 90.623分钟
每日圈数: 15.889957
详细信息
固有亮度:
5
最大亮度:
2.5
卫星平台:
Starlink V1.0
覆盖范围:
全球
运营商:
太空探索技术公司
运营商所在国:
美国
制造商(研发单位):
太空探索技术公司
制造商所在国:
美国
使用方式:
暂无
卫星简介
Starlink 计划是 SpaceX 推出的全球卫星互联网项目,通过发射低轨道卫星,为全球尤其是偏远地区提供高速、低延迟的互联网服务。自 2019 年起,Starlink 已部署数千颗卫星,旨在缩小全球数字鸿沟,推动互联网普及。该项目还为军事、航空等行业提供通信支持,带来广泛经济效益。
2D轨道图
3D轨道图
轨道高度分析图
轨道倾角分析图
轨道综合分析图
查看轨道综合分析图